RH
29 66 80 100 100 100 100 81 93 100 100 100 97 99 90 98 100 100 100 93 87 98 94 79 88 100 100 93 68 73 77 82 66 81 86 72 55 48 62 57 66 94 99 93 78 71 64 59 60 78 83 71 88 65
56 72 100 100 100 100 100 85 90 88 100 99 96 99 100 100 100 100 100 100 88 86 78 88 91 95 92 92 92 80 78 76 66 71 52 41 47 74 98 100 100 100 100 100 100 100 80 74 80 90 61 81 91 77
72 89 100 100 100 100 100 93 78 89 100 100 100 93 100 100 100 100 100 100 98 90 96 90 100 93 68 66 61 64 73 85 83 78 72 74 93 100 100 100 100 100 100 100 100 94 82 83 95 65 70 90 93 98
78 100 100 100 100 100 100 97 82 83 95 100 98 91 98 100 100 100 100 100 100 100 100 100 100 100 100 100 99 96 87 92 100 100 100 100 100 100 100 100 100 100 94 85 76 79 90 99 85 81 90 86 74 70
87 98 100 100 100 100 100 99 92 77 78 100 100 100 90 96 96 100 100 100 100 100 100 100 100 100 100 100 100 100 100 100 100 100 100 100 100 100 92 90 98 100 88 79 75 83 81 83 81 75 77 80 77 70
89 100 100 100 100 100 100 100 100 92 85 77 80 96 100 91 91 100 100 94 98 100 100 92 89 79 75 84 97 100 100 100 100 100 100 100 100 100 89 98 100 100 85 81 88 92 84 78 78 97 94 83 85 94
88 96 100 100 100 100 99 100 100 100 100 95 78 75 83 99 97 90 94 96 95 95 95 96 100 99 100 100 99 98 96 94 91 80 83 90 89 84 85 100 100 85 96 100 96 90 86 95 100 100 97 96 100 100
95 98 98 99 100 97 95 96 100 100 100 100 100 99 86 77 81 94 100 98 91 91 90 88 92 97 93 95 91 91 96 90 83 77 84 92 82 79 89 98 87 91 86 92 93 86 92 95 92 94 89 93 97 94
90 89 87 94 99 90 80 85 96 97 100 100 100 100 96 94 87 84 85 88 94 87 83 83 86 98 99 97 91 90 88 81 74 80 84 79 85 86 87 87 90 92 79 72 76 94 92 84 89 95 97 91 89 91
95 100 92 84 91 92 96 95 92 90 94 93 89 96 89 92 98 94 88 72 62 65 83 100 96 88 95 99 97 88 84 82 73 76 80 72 75 95 79 66 68 88 99 97 98 100 98 92 90 88 85 90 95 97
86 89 98 95 88 95 94 93 95 89 85 83 97 96 100 98 97 96 94 96 100 91 89 91 91 92 90 91 93 82 79 82 76 80 82 76 98 100 100 98 92 100 100 100 96 84 83 89 89 89 89 88 89 82
79 76 88 93 92 86 96 95 90 91 96 100 97 93 93 88 89 85 86 94 96 100 100 100 100 100 100 100 98 96 98 97 95 100 100 100 100 100 100 100 100 100 96 94 93 96 92 87 86 85 85 81 82 83
65 65 69 67 80 91 91 95 93 94 100 97 98 100 95 98 90 90 99 98 95 94 98 100 100 100 100 100 100 100 100 97 95 87 86 96 99 98 96 97 96 98 98 98 94 89 86 80 73 69 66 64 60 56
70 74 70 68 64 67 79 83 88 96 100 99 94 97 98 92 92 88 88 94 98 99 99 100 100 100 100 100 100 99 91 92 87 85 89 91 86 87 87 81 74 74 73 75 76 74 69 63 56 48 48 55 60 51
68 73 73 75 75 73 68 65 63 68 78 93 87 86 90 94 90 94 99 100 98 99 100 100 96 98 100 100 100 98 98 94 84 79 79 80 78 76 76 77 75 75 70 61 57 57 53 48 52 55 53 47 36 26
64 71 70 69 73 80 80 86 85 84 75 67 71 84 95 88 86 96 90 90 91 97 98 97 96 95 99 98 96 93 89 82 81 74 71 70 69 69 69 65 60 56 57 55 51 47 46 39 37 37 29 23 22 19
49 63 60 55 53 60 63 71 78 84 89 81 78 76 76 71 76 84 82 86 85 92 93 82 80 81 78 79 82 85 86 85 84 83 78 72 66 66 61 56 49 42 38 32 30 28 25 23 24 27 19 16 15 15
58 46 55 48 46 40 36 44 60 65 67 70 70 70 73 71 69 70 68 66 63 66 68 70 72 74 72 69 66 68 68 66 62 60 56 53 51 49 46 43 34 30 29 31 31 26 20 16 15 15 14 14 14 12
52 66 60 60 55 55 66 38 26 31 31 34 41 49 54 61 62 61 65 67 64 64 66 67 66 68 71 70 66 61 58 58 61 58 58 54 48 46 38 37 40 41 34 27 23 17 14 14 14 13 12 10 9 9
40 37 30 27 28 30 38 45 38 35 32 29 22 22 23 24 26 29 32 37 43 50 50 49 52 55 55 57 60 58 60 58 57 54 46 31 25 26 27 25 24 20 16 13 12 12 12 11 10 9 8 8 8 8
20 20 20 19 20 18 20 21 20 20 21 21 19 20 21 18 17 17 17 17 18 19 20 22 21 24 32 34 29 24 28 33 34 27 23 20 17 16 16 15 13 13 12 12 12 11 10 9 8 7 7 8 7 7
18 18 17 17 16 16 16 15 15 15 15 14 14 14 13 13 12 13 13 13 13 13 13 13 13 13 13 14 14 13 13 13 12 12 12 11 11 11 11 11 11 10 9 9 8 8 8 7 6 6 6 6 7 7
13 13 13 13 13 13 13 14 14 14 14 14 14 13 13 13 12 12 12 12 12 11 11 11 11 11 11 10 10 9 9 9 9 8 8 9 9 9 9 8 7 7 7 7 6 6 5 5 6 6 6 6 5 5
8 8 8 9 9 9 10 10 10 10 10 11 11 10 10 10 9 9 9 9 9 8 8 8 8 8 8 8 8 7 7 7 7 7 7 8 8 7 6 5 6 6 5 5 5 5 6 6 5 5 4 4 3 4
7 7 7 7 7 8 8 8 8 7 7 7 7 6 6 6 6 6 6 6 6 6 7 7 6 6 6 6 6 6 6 7 8 8 8 7 6 6 5 5 4 4 4 5 5 5 4 4 4 3 3 3 4 4
5 5 5 4 5 6 6 6 6 6 6 6 5 5 5 5 6 6 6 6 6 6 5 5 5 5 6 6 8 8 8 7 5 4 5 5 4 4 4 5 5 4 4 4 4 4 3 3 3 3 3 3 4 4
5 5 5 6 6 6 6 6 6 6 6 6 7 6 6 7 6 6 6 6 5 5 6 6 6 7 6 6 6 5 5 5 5 5 5 5 5 5 5 4 4 4 3 3 3 3 3 3 3 3 4 3 3 3
5 5 5 5 5 5 5 5 5 5 5 5 5 5 5 5 5 5 5 5 5 5 5 5 5 5 6 5 5 4 4 4 4 4 4 4 3 3 3 3 3 3 3 3 3 3 4 3 3 2 2 2 2 2
3 3 4 4 4 4 4 4 5 5 5 5 5 5 5 5 5 5 5 5 5 5 5 4 4 4 3 3 3 3 3 3 3 2 2 2 3 3 3 3 3 4 4 4 3 3 3 3 3 3 2 2 3 3
3 3 2 3 3 3 3 3 3 3 4 4 4 4 3 3 3 3 3 3 3 4 4 4 4 3 3 3 3 3 3 3 3 3 2 2 3 3 3 3 2 2 2 2 2 2 2 2 2 3 3 3 3 3
3 2 3 3 3 3 3 3 3 3 3 3 3 3 3 3 3 3 3 3 3 3 3 3 2 3 3 3 3 3 3 3 3 3 3 3 3 3 2 2 2 2 2 2 2 3 3 3 2 2 2 2 2 2
3 3 3 2 2 2 3 3 3 3 3 3 3 3 2 2 3 3 3 3 3 3 3 3 3 3 3 3 3 3 3 3 3 3 3 2 2 2 2 2 2 2 2 3 3 2 2 2 2 2 1 1 1 1
2 3 3 3 3 3 3 3 3 3 3 3 3 3 3 3 3 3 3 3 3 3 3 3 3 3 3 3 3 3 3 3 2 2 2 2 2 2 2 2 3 3 2 2 2 2 2 2 1 1 1 2 2 2
Wind_Speed
74 75 74 76 68 63 63 59 56 54 54 66 63 54 51 48 43 48 49 45 42 40 34 30 28 30 34 36 33 31 30 30 28 22 22 24 25 27 29 34 38 41 45 50 54 57 56 60 61 65 68 68 71 75
74 75 75 74 68 64 60 59 56 58 56 64 64 58 51 49 46 45 48 46 44 40 34 30 28 30 31 37 39 34 33 32 29 30 31 32 31 34 37 38 45 48 54 57 59 61 64 66 67 69 70 72 76 76
76 76 77 73 70 65 61 58 57 57 56 56 66 64 54 51 50 46 49 50 44 41 38 34 34 29 30 33 35 36 37 36 36 38 39 38 40 42 43 46 50 50 54 58 64 68 71 70 70 74 73 76 78 75
77 76 75 75 72 67 62 58 56 57 55 52 65 65 60 55 51 48 44 45 51 47 43 41 41 39 35 35 36 35 38 39 41 43 43 44 48 50 53 53 55 60 64 68 69 72 70 72 74 76 78 79 79 74
79 79 79 76 73 69 65 60 54 53 56 54 58 66 64 59 56 53 51 49 50 50 50 51 49 48 46 45 47 48 49 51 51 52 54 55 57 58 57 58 61 68 73 74 72 73 74 75 77 78 80 80 77 77
75 77 79 77 75 70 66 63 55 53 52 53 56 57 60 65 61 58 55 54 55 53 53 54 53 53 52 53 54 56 58 58 57 58 58 60 64 63 59 60 67 77 78 75 73 77 79 79 78 81 79 78 81 84
71 78 77 76 74 71 68 64 59 52 51 51 53 54 54 52 56 57 57 59 58 58 59 58 56 56 57 59 60 62 62 63 63 63 64 66 70 71 67 64 77 76 75 77 81 83 80 81 83 83 84 84 87 88
74 76 80 76 73 73 71 67 62 57 55 54 53 53 54 54 55 55 55 57 59 60 60 59 60 65 66 65 65 66 67 69 69 69 69 71 71 70 64 73 73 75 79 82 82 81 83 82 82 85 86 88 90 92
75 79 82 80 78 76 72 68 65 62 58 56 54 54 54 55 56 55 55 57 56 55 56 57 58 60 62 67 70 72 74 74 71 70 73 70 66 66 73 74 76 80 81 81 81 82 83 85 87 89 91 94 96 101
69 71 73 78 75 76 71 69 67 65 61 59 56 54 54 54 55 55 55 55 54 52 51 54 56 59 64 68 70 72 73 71 67 68 71 69 65 72 78 79 80 83 84 82 83 85 88 90 92 94 97 99 104 107
69 74 74 71 70 67 69 70 67 64 63 61 58 57 56 55 55 55 54 52 53 54 55 57 62 66 69 71 75 74 72 72 68 69 73 71 72 78 80 80 79 80 83 86 89 91 93 94 97 100 103 107 110 114
67 70 73 74 70 72 70 71 73 70 66 66 67 65 64 63 61 58 54 54 54 54 55 61 66 68 68 71 72 72 75 75 73 72 73 71 74 76 78 79 81 84 87 91 94 96 98 102 104 107 111 114 117 121
65 66 68 72 76 74 71 73 74 71 71 72 70 72 70 69 67 63 60 59 60 61 63 65 66 68 69 71 73 74 76 76 77 76 76 77 81 83 85 87 89 92 95 98 101 104 107 111 115 118 122 124 126 128
61 60 61 64 70 73 75 74 75 75 75 76 75 76 76 75 72 71 70 70 70 70 70 70 72 73 76 79 80 81 83 84 84 85 86 89 91 91 94 97 99 101 103 107 110 113 116 120 125 127 125 121 120 119
57 57 57 57 59 64 71 75 76 81 81 80 82 85 82 80 80 80 80 79 78 78 79 80 81 83 85 88 89 91 93 95 96 96 97 98 100 102 104 106 108 110 113 116 119 123 126 125 121 119 118 114 111 109
57 56 57 58 62 64 64 64 67 69 73 82 89 89 86 88 89 88 88 88 88 89 89 91 91 91 93 96 98 101 103 104 106 107 108 110 111 114 116 119 121 122 123 124 123 120 118 115 112 111 111 109 107 104
61 59 58 56 56 59 62 65 67 74 74 76 80 83 87 93 95 96 96 94 95 97 99 100 101 102 103 104 104 106 109 110 112 114 116 118 120 122 123 124 122 119 116 112 110 109 109 111 113 109 106 105 100 100
67 63 62 63 62 62 61 62 64 67 73 78 82 84 86 89 92 95 99 102 104 105 106 107 109 110 111 112 114 114 116 119 121 121 123 123 121 119 116 114 111 110 112 114 113 115 113 108 107 104 102 100 98 96
69 73 73 72 71 70 70 68 65 67 69 71 73 75 79 85 88 91 94 96 97 101 104 104 105 106 108 111 111 111 110 109 111 113 113 114 115 116 115 115 116 118 120 117 116 112 107 104 103 100 96 94 91 92
71 71 71 71 72 73 75 77 77 75 77 77 77 79 80 82 84 84 86 88 93 96 97 99 101 104 105 106 108 108 107 108 109 111 114 114 113 114 117 116 117 114 110 106 104 100 98 97 96 93 90 89 86 85
71 71 72 73 74 74 74 76 76 78 79 79 79 80 82 83 86 87 89 90 93 95 95 96 96 101 104 105 105 103 107 110 112 114 115 115 111 110 110 108 105 106 103 99 99 98 95 92 90 88 85 84 82 80
70 70 71 72 72 73 73 74 75 77 78 78 78 79 80 80 80 80 81 82 83 84 86 88 89 90 91 93 95 97 98 99 99 100 99 99 100 101 100 98 95 94 93 90 89 88 88 85 83 80 78 76 75 74
65 67 68 68 70 70 71 73 74 75 77 78 79 80 80 80 80 81 81 82 82 84 83 84 85 85 86 87 88 88 89 89 89 88 87 88 88 88 88 87 84 83 82 81 80 79 78 76 75 74 73 71 70 69
53 55 56 57 57 59 63 66 67 68 68 70 72 73 74 75 75 75 76 77 79 79 79 80 80 81 82 83 83 83 83 82 81 80 79 79 80 80 79 77 75 74 73 73 73 72 72 71 70 70 69 68 67 66
52 53 54 55 56 58 60 62 63 63 64 65 65 65 66 67 67 66 67 68 69 69 70 72 72 71 71 71 71 71 70 69 68 69 70 72 73 72 71 71 70 69 68 68 68 67 67 66 65 65 65 63 62 61
46 46 49 48 48 52 53 55 55 56 58 60 60 60 60 59 60 61 63 62 63 64 63 63 62 61 61 61 61 62 63 65 65 63 63 65 65 65 65 66 67 66 64 62 62 63 65 64 62 61 60 58 56 56
41 42 41 42 44 45 46 47 48 47 48 50 51 51 51 53 55 56 58 58 57 55 53 52 52 52 53 54 57 59 59 60 60 61 61 61 60 61 60 60 61 61 62 61 60 58 57 57 57 55 53 54 54 55
35 35 36 35 38 38 40 40 40 41 42 44 45 46 46 47 48 48 48 48 47 47 48 48 49 50 51 53 54 56 56 56 55 53 54 55 54 55 54 54 53 54 54 54 54 54 54 54 54 53 53 53 53 52
30 31 32 33 35 37 37 37 38 39 40 40 40 40 40 40 41 43 43 44 44 44 45 46 46 47 48 49 49 48 48 49 49 49 46 47 48 48 49 49 50 49 50 50 49 49 51 51 52 52 53 54 54 53
26 27 28 29 29 30 31 31 32 33 34 35 36 38 38 38 38 39 40 40 40 41 44 46 46 45 45 44 45 45 46 46 46 47 47 46 46 46 46 46 46 45 46 46 47 48 46 45 45 45 43 44 46 47
26 26 27 27 28 29 29 30 31 31 32 32 33 35 36 35 36 37 37 37 37 39 41 42 41 41 42 42 41 42 44 45 45 45 45 46 46 46 45 45 46 47 47 47 47 48 48 46 45 44 42 41 41 40
23 24 24 25 25 25 26 27 28 29 30 31 32 33 32 32 32 34 34 35 37 37 38 39 39 39 40 40 40 40 40 40 42 42 42 42 43 44 45 45 45 46 46 46 44 43 43 43 43 42 41 41 40 39
21 21 21 22 23 23 24 24 25 26 27 28 30 30 29 29 30 32 34 34 35 36 36 37 37 38 38 38 39 39 40 41 41 41 42 42 42 42 42 42 42 42 41 41 42 43 42 40 40 40 40 39 38 37
Wind_Direction
181 179 179 177 180 184 193 193 194 187 197 197 195 194 198 203 204 204 205 208 210 214 219 228 233 230 230 235 234 234 236 246 251 250 251 257 266 275 281 285 286 289 291 292 295 296 300 303 307 307 307 310 312 315
179 180 180 180 182 188 193 197 192 194 195 198 198 196 200 204 203 208 212 215 219 219 219 224 232 236 233 233 236 235 242 244 243 251 259 267 268 274 277 283 286 289 291 292 293 296 299 303 305 305 308 311 311 313
182 183 182 183 187 189 195 200 193 197 195 201 199 199 202 205 207 208 216 219 222 223 225 227 236 237 238 235 236 239 240 243 245 252 258 262 268 273 279 283 288 288 285 289 293 298 300 302 302 305 308 309 309 308
184 184 184 188 189 192 196 202 201 197 197 200 201 202 203 207 208 208 212 219 224 229 233 237 239 244 244 247 248 251 251 253 260 260 263 267 271 276 281 285 283 284 284 289 295 297 299 299 301 304 306 305 305 304
186 187 188 188 192 196 198 203 206 203 203 199 205 206 208 210 212 214 215 218 221 227 233 239 241 243 247 252 257 262 264 266 266 267 268 269 272 273 274 280 284 286 288 292 296 295 297 298 301 303 303 303 303 305
190 190 190 192 194 197 200 202 207 210 210 210 207 208 214 216 219 222 226 228 229 230 233 237 240 244 247 249 253 257 259 259 260 264 269 272 273 276 278 282 285 286 290 293 293 295 297 300 301 302 301 301 303 304
195 195 194 196 197 200 203 204 206 210 212 216 217 217 217 220 224 227 231 235 236 238 240 242 246 248 248 250 254 256 258 260 263 267 271 272 274 278 281 283 281 286 288 291 293 296 297 297 297 298 299 300 302 304
199 199 199 197 200 202 204 205 207 210 213 215 220 224 225 226 225 227 232 237 239 241 243 245 249 251 253 254 256 259 260 262 265 268 270 272 275 279 281 279 282 284 287 290 292 294 296 296 295 295 298 300 300 302
202 203 202 201 203 206 208 210 211 213 215 218 221 223 228 231 233 235 236 236 238 243 247 248 249 252 256 256 257 259 261 264 267 269 269 273 277 281 279 280 283 285 287 289 293 294 293 294 295 296 298 299 300 302
206 207 208 207 208 209 211 213 216 217 220 222 225 227 228 231 236 241 244 244 243 243 246 251 254 255 259 261 262 261 262 266 268 270 271 274 277 279 280 282 286 288 289 289 290 291 291 292 294 294 296 299 300 303
207 208 211 210 212 213 217 218 220 223 226 226 228 229 230 233 235 237 241 245 247 249 249 253 255 257 259 260 264 267 269 271 273 274 276 277 280 278 280 281 282 284 286 288 289 290 292 292 293 295 297 298 301 303
215 214 215 214 215 218 219 221 224 225 226 230 232 233 235 236 237 240 242 245 247 249 249 251 253 256 260 263 266 268 269 271 272 271 273 275 275 276 277 279 281 283 285 287 289 291 292 295 296 297 298 300 300 301
224 221 219 220 219 219 222 224 225 228 230 230 233 236 238 240 241 243 244 246 248 249 250 252 255 257 259 260 262 263 264 267 269 270 272 273 274 276 277 279 280 282 284 286 288 290 292 294 295 296 297 297 299 301
229 230 226 224 224 222 223 227 228 229 232 235 235 238 241 243 245 247 247 248 250 251 252 253 255 258 260 261 263 266 266 267 268 270 272 274 275 276 277 278 279 281 284 286 288 290 291 293 295 296 297 299 301 302
228 229 230 231 229 228 228 231 234 234 233 235 239 240 241 244 245 246 247 248 250 252 253 254 255 257 259 262 264 266 268 269 271 272 273 274 275 277 278 280 281 284 285 287 288 290 292 294 297 298 299 301 302 304
233 231 233 231 231 233 232 233 235 237 237 238 239 240 243 245 245 247 249 250 251 252 253 255 256 258 261 264 266 267 269 271 273 274 276 277 278 280 281 283 285 287 289 290 292 294 295 296 296 298 301 304 304 305
235 237 237 238 234 236 238 238 235 235 237 239 241 242 244 246 247 249 251 252 253 255 256 257 259 261 263 263 265 268 270 272 273 275 276 278 280 281 283 285 286 288 290 291 292 294 296 299 301 302 303 305 308 309
240 241 242 243 243 243 241 241 237 237 239 242 243 244 245 247 249 251 251 253 255 257 258 260 261 263 264 265 266 269 270 272 273 275 277 279 281 283 285 286 288 290 292 294 296 299 301 303 304 304 306 307 307 306
237 239 243 245 247 247 249 250 245 247 247 246 245 245 248 249 251 252 253 255 257 259 259 261 263 264 266 268 270 272 274 276 277 278 280 282 283 285 288 290 292 293 296 297 298 300 301 302 302 302 303 303 305 306
241 242 243 243 245 246 248 251 253 252 252 253 251 252 252 253 253 253 255 257 259 260 261 262 264 265 266 269 271 273 275 278 278 279 281 283 284 285 286 288 290 293 294 295 297 299 300 301 302 302 303 304 304 303
240 242 244 245 247 248 249 250 252 253 254 255 256 257 258 258 258 259 259 260 261 261 263 264 266 267 266 268 271 273 273 273 274 277 279 282 284 285 287 289 291 293 295 296 297 298 299 298 299 301 303 302 303 304
241 243 245 248 249 251 252 253 253 254 256 258 259 260 261 262 263 264 265 266 267 267 267 267 268 269 270 271 272 273 275 276 278 280 281 283 285 287 289 290 291 292 293 293 294 294 295 297 298 299 300 301 302 304
243 245 247 249 251 253 254 256 257 259 260 261 262 263 263 264 265 266 266 266 267 268 269 270 271 273 273 274 275 276 278 279 281 283 285 287 288 288 289 288 289 290 291 294 295 295 296 298 299 300 301 301 302 303
242 244 246 248 251 252 253 254 255 256 258 260 260 261 262 262 263 264 265 266 266 268 269 271 272 274 275 277 279 280 282 283 286 288 289 289 287 287 287 289 292 292 293 293 294 296 297 298 299 300 300 301 301 301
243 244 246 247 248 249 250 252 253 255 256 258 260 261 262 263 265 267 268 268 270 271 272 273 275 277 279 281 282 284 286 287 287 284 282 284 286 289 291 291 292 293 295 295 296 297 297 298 298 298 298 300 300 300
248 250 249 251 253 253 254 256 257 257 258 260 262 264 266 269 270 270 271 272 273 273 275 278 281 283 285 286 287 285 282 280 282 287 287 287 289 291 292 293 295 296 296 296 296 296 296 297 297 298 299 300 301 300
251 252 254 253 253 253 255 256 259 261 262 264 264 264 265 266 268 270 272 274 278 281 282 283 283 281 279 277 277 279 282 284 284 286 288 289 290 290 291 291 291 292 293 294 295 296 296 297 299 301 301 300 300 299
253 254 254 254 255 256 257 259 261 261 262 263 265 266 268 269 271 273 276 279 280 279 279 278 279 280 280 280 280 281 282 285 287 287 286 287 288 289 289 290 291 292 294 297 299 300 301 301 302 302 302 301 302 302
253 254 254 254 255 257 260 262 263 264 266 268 271 272 273 275 274 275 276 277 279 281 282 281 280 280 280 282 285 287 287 287 287 286 286 287 289 290 293 296 297 298 299 299 299 299 299 300 301 301 302 303 304 305
259 261 261 263 263 264 265 266 267 268 269 270 271 271 273 275 277 277 278 279 280 281 281 282 283 285 287 288 289 290 291 292 294 295 297 298 298 298 299 298 299 299 299 299 300 299 298 300 301 301 302 302 301 302
257 259 261 262 264 266 267 268 268 270 272 273 272 273 273 274 277 278 279 280 279 279 280 283 285 287 289 289 291 293 293 295 296 297 298 299 300 300 301 302 303 303 304 305 306 306 306 308 307 306 306 305 304 303
259 261 262 264 266 269 270 271 271 272 273 273 274 275 278 280 281 281 282 281 281 283 286 287 288 290 290 292 293 294 295 295 296 297 298 298 299 300 302 303 304 304 305 305 305 305 307 308 309 310 309 308 308 308
267 268 269 269 269 270 273 275 275 275 275 275 277 279 282 283 284 283 283 286 288 289 290 291 292 292 293 295 296 297 297 297 298 298 299 299 300 301 301 303 304 305 306 308 309 310 311 311 310 311 312 312 312 312